User: anonymous
Location: Unspecified
(0.0000°N, 0.0000°E)
Time: 08:12:23
(UTC+00:00)
Language:

SES 6 - Orbit

View from above orbital plane
View from above orbital plane
View from above satellite
View from above satellite

Ground track
Ground track

The orbit data is extracted from the following two-line orbital elements,

1 39172U 13026A   14273.20258995 -.00000274  00000-0  00000+0 0  3460
2 39172 000.0264 066.5856 0001911 120.6811 214.0557 01.00270947  4854
Epoch (UTC): 30 September 2014 04:51:43
Eccentricity: 0.0001911
inclination: 0.0264°
perigee height: 35778 km
apogee height: 35794 km
right ascension of ascending node: 66.5856°
argument of perigee: 120.6811°
revolutions per day: 1.00270947
mean anomaly at epoch: 214.0557°
orbit number at epoch: 485

The dashed part of the orbit path shows where the satellite is in the earth's shadow,  

DLR